Location: Gleizolles
(44.4833°N, 6.7667°E)
Time: 09:55:57
(UTC+00:00)

Cosmos 540 Rocket - Pass Details

Date: 09 April 2020
Orbit: 741 x 753 km, 74.1° (Epoch: 04 June)

Event Time Altitude Azimuth Distance (km) Brightness Sun altitude
Rises 21:27:56 0° 336° (NNW) 3,210 7.8 -30.3°
Reaches altitude 10° 21:30:19 10° 334° (NNW) 2,280 6.8 -30.5°
Enters shadow 21:34:19 50° 308° (NW) 948 4.2 -30.9°
